METEOR 2-20 DEB

Satellite information

Favourite Embed

Satellite Type and Status

DEBRISIN ORBIT

Key statistics

Satellite METEOR 2-20 DEB at a glance.

Uptime

12861

Days in orbit

Revolutions

≈ 14.0

Per day

Orbit

LEO

Low Earth Orbit

Inclination

82.5

Latest

Satellite identification and parameters

Extended collection of information and parameters for METEOR 2-20 DEB.

Object identification

Identified? True

Debris? True

Object name: METEOR 2-20 DEB

International designator: 1990-086D

Object number (NORAD): 44699

Object ID (CCSDS): 44699

Country: COMMONWEALTH OF INDEPENDENT STATES (CIS)

Current information (Y/N): Y

RCS size: SMALL

Orbital parameters

Period: 103.04 minutes

Inclination: 82.5178 deg

SMA: 7280.529 km

Apoapsis: 914.293 km

Periapsis: 890.495 km

RAAN: 311.9965 deg

Eccentricy: 0.00163435

Argument of periapsis: 129.9888 deg

Mean anomaly: 230.2718 deg

Mean motion: 13.97521117 rev/day

Mean motion (dot): 0.00001953 rev/day2

B* drag term: 0.0013762396 1/REarth

Two-line elements (TLE)

Creation date: Dec. 11, 2025, 7:14 p.m.

Reference frame: TEME

Reference center: EARTH

Epoch: Dec. 11, 2025, 3:18 p.m. UTC

TLE line 0: 0 METEOR 2-20 DEB

TLE line 1: 1 44699U 90086D 25345.63750365 .00001953 00000-0 13762-2 0 9998

TLE line 2: 2 44699 82.5178 311.9965 0016344 129.9888 230.2718 13.97521117611392

Live tracking on map

Real-time ground track for satellite METEOR 2-20 DEB.

In-orbit conjunctions

A list of the most updated potential collisions computed for object METEOR 2-20 DEB.

Target Orbit TCA Probability of collision Miss distance Type
FENGYUN 1C DEB SSO 2025-07-21 19:35:40 0.0001110514 100.0 (m) DEBRIS
CZ-6A DEB LEO 2024-12-28 08:42:55 0.0002499281 567.0 (m) DEBRIS

Associated space launch

Second generation soviet meteorological satellite

METEOR 2-20 DEB was lifted into orbit during the mission ‘Tsiklon-3 | Meteor-2 20’, on board a Tsiklon-3 space rocket.

The launch took place on Sept. 28, 1990, 7:30 a.m. from 32/1.

For more information about the launch, click the button.

Launch to space Tsiklon-3 | Meteor-2 20
Tsiklon-3 | Meteor-2 20

Agency: N/A

Status: Launch Successful

Launch date: Sept. 28, 1990, 7:30 a.m. UTC

Rocket: Tsiklon-3

Launch pad: 32/1

Location: Plesetsk Cosmodrome, Russian Federation

...

Latest news about this satellite

There are no fresh news available about this satellite. Check back as we update our databases every day.


Newsletter sign-up

Weekly statistics, charts and insights to help you stay on top of the space industry.